Helicity
144 45 96 106 157 177 194 184 165 145 120 111 108 99 102 108 108 112 117 112 97 79 70 64 64 71 77 69 60 42 24 33 53 77 72 74 68 71 74 79 82 79 99
159 143 55 103 131 139 165 170 156 139 123 99 88 87 98 105 93 98 99 94 76 73 65 62 60 52 50 52 39 11 -32 -13 43 57 65 80 77 62 67 56 51 58 83
139 147 62 66 125 143 143 147 134 117 106 89 84 93 107 98 97 91 87 79 72 64 60 51 43 38 40 39 50 42 10 -54 25 44 50 16 31 63 68 68 68 58 64
-28 65 78 254 96 155 145 132 121 105 92 81 89 103 118 115 104 95 85 69 59 51 45 42 39 32 37 50 66 79 88 163 152 73 39 33 36 50 47 53 52 57 67
-9 50 216 43 121 140 128 115 112 116 101 89 98 107 116 106 111 89 69 55 43 39 37 34 28 28 37 57 100 115 74 97 104 62 34 26 10 30 44 48 56 54 59
29 120 111 120 182 187 157 169 160 127 108 95 107 99 106 103 104 86 59 48 42 38 30 27 25 26 35 77 126 145 40 65 49 53 19 12 -6 29 40 45 50 54 65
173 170 134 227 224 226 188 165 171 137 112 99 103 99 109 111 97 81 61 50 36 26 24 21 25 32 37 74 130 150 23 30 3 3 -9 -9 7 39 43 42 46 54 72
296 296 256 318 228 205 183 187 198 166 119 104 105 91 114 117 96 89 70 47 35 28 27 27 28 36 44 71 128 144 72 30 12 -10 -11 -11 29 41 45 49 56 64 72
277 271 235 197 82 506 435 309 271 240 200 129 116 101 117 120 103 93 67 41 38 29 21 24 21 32 48 89 141 155 100 25 4 -31 -5 -20 30 36 42 49 55 64 71
203 158 131 194 221 66 -62 235 126 170 182 206 210 162 173 140 118 94 66 47 31 29 20 13 8 37 52 100 131 179 137 90 9 -19 -13 -14 26 30 39 42 39 49 53
120 135 205 328 274 225 194 299 135 72 154 173 218 248 209 164 133 102 43 23 39 15 2 5 5 14 57 88 101 140 79 18 9 -28 -30 13 24 27 32 40 42 50 54
164 199 206 278 264 238 156 113 148 133 135 151 158 166 186 166 109 86 62 17 29 8 17 -5 17 23 48 55 55 113 42 19 2 -19 -15 30 31 34 35 37 36 46 65
155 199 224 265 247 207 198 208 187 272 265 310 158 198 98 131 91 66 63 24 9 11 7 2 -8 14 39 53 42 76 53 26 14 3 -2 37 40 39 39 39 47 54 67
276 320 308 306 230 208 261 189 192 254 174 136 87 88 71 74 56 71 19 11 33 3 -5 -7 -18 15 36 33 36 46 54 23 24 2 17 46 58 58 55 43 43 62 78
322 326 365 339 393 307 331 248 322 348 152 141 110 90 54 29 35 -4 6 19 22 3 3 -8 18 6 19 32 45 47 55 56 41 16 14 73 68 70 64 71 71 84 90
255 316 356 357 321 442 364 514 382 388 304 237 190 142 99 44 -24 -27 -30 19 5 -4 -10 16 20 8 19 40 48 43 52 75 36 50 34 23 65 88 96 98 96 90 79
216 227 323 329 353 457 513 505 407 454 448 198 364 272 -45 -68 -68 -51 11 10 5 -4 7 56 25 30 38 39 27 34 44 67 89 57 38 40 63 104 127 129 97 99 116
168 159 212 363 436 389 384 336 470 187 204 377 366 -51 -55 -89 -60 -25 11 24 0 80 92 77 75 59 40 54 23 32 44 65 68 91 65 72 101 124 144 168 156 144 138
74 134 169 187 178 164 137 86 103 72 117 53 -63 -82 -152 -109 -68 40 33 6 55 114 107 102 71 58 51 73 81 72 89 92 74 73 105 106 109 152 158 167 146 125 117
18 41 63 47 60 63 32 38 48 -57 -164 -105 -25 -94 -101 -75 -29 -2 23 11 93 115 118 117 87 85 67 125 130 138 128 117 79 101 109 121 145 179 179 161 144 133 129
8 -1 3 1 0 -21 -76 -123 -147 -182 -234 -189 -151 -91 -47 -56 -21 26 49 85 87 121 148 149 137 107 109 166 186 166 157 128 131 152 143 128 138 138 167 154 151 153 154
12 14 4 -22 -42 -82 -83 -117 -126 -114 -153 -167 -112 -73 -32 13 27 39 73 69 114 181 188 184 196 206 152 159 196 236 250 250 191 194 188 166 150 173 164 187 169 184 204
2 -21 -22 -42 -67 -119 -92 -77 -72 -71 -79 -59 -69 -70 -19 51 57 73 51 41 100 182 269 258 205 225 193 168 158 261 254 285 290 203 157 191 180 210 269 255 222 231 223
43 5 1 -32 -40 -50 -21 -21 -20 -1 8 -6 -4 7 32 81 110 108 110 102 181 227 242 230 258 271 301 319 186 233 328 257 256 232 218 142 193 244 230 234 237 229 194
144 96 60 22 6 -1 -5 -12 -13 7 46 49 52 61 72 117 139 137 140 170 235 252 259 268 297 312 410 363 261 352 434 204 129 160 186 177 223 199 217 255 238 224 240
134 120 109 117 44 7 -2 -26 -49 73 77 82 88 82 104 166 186 170 169 200 245 264 245 293 345 400 402 358 460 382 411 228 211 183 272 230 212 190 268 312 233 218 273
Wind_Speed
15 8 12 21 17 14 17 18 20 19 19 22 26 30 35 38 39 41 40 39 39 40 41 42 43 44 46 46 48 51 54 56 55 52 51 51 51 51 51 50 50 51 52
9 12 9 23 20 16 16 19 21 22 23 23 25 30 35 37 40 41 41 41 39 40 40 40 41 41 43 44 46 47 50 54 52 52 50 51 51 52 51 51 51 51 50
6 7 14 12 33 23 17 19 19 19 22 24 26 30 34 38 40 41 41 40 40 40 40 40 41 40 40 40 42 41 37 38 43 49 49 49 48 49 50 50 51 51 51
57 41 49 27 34 23 18 17 18 17 17 19 25 29 32 37 40 40 41 41 40 39 40 40 39 37 34 34 39 39 41 45 45 45 46 46 48 48 47 48 49 49 50
63 43 17 18 30 24 23 22 20 20 18 20 23 27 32 36 37 37 38 39 39 39 38 38 37 35 32 33 36 35 40 44 43 45 47 47 47 47 48 48 48 48 49
30 21 7 23 29 23 21 20 17 16 19 24 28 27 30 34 36 36 37 39 38 37 36 35 33 31 31 31 36 34 41 42 43 44 45 47 48 48 48 48 49 48 49
27 22 10 18 22 25 24 23 20 17 16 21 26 28 29 33 34 35 37 37 36 34 32 31 30 28 27 30 35 35 39 43 45 47 47 46 46 45 46 47 49 50 51
17 5 19 23 27 27 27 24 22 20 17 19 25 29 29 31 32 34 35 36 35 31 30 27 28 27 26 28 31 34 35 41 46 47 46 45 44 46 47 48 50 52 52
10 8 8 16 29 20 15 21 18 20 17 16 23 27 28 28 31 32 32 33 32 31 32 32 32 30 30 25 26 29 30 40 42 45 44 43 44 45 47 49 49 51 51
16 15 21 36 36 11 7 14 21 16 18 15 22 25 25 25 28 32 33 30 31 31 30 30 31 33 33 25 24 28 32 36 40 41 40 37 40 43 45 47 48 49 50
19 16 14 14 17 19 20 15 15 11 16 15 18 20 19 20 20 22 34 36 29 28 26 28 32 31 29 23 23 29 33 34 35 36 36 36 39 41 43 44 45 46 48
17 15 13 13 17 26 32 35 41 20 17 15 12 16 15 14 16 19 24 35 30 25 22 24 24 21 20 21 24 26 31 32 32 34 35 35 37 39 40 42 44 45 46
21 13 12 11 15 22 28 32 27 13 27 15 12 14 23 14 15 14 14 27 28 24 19 17 19 21 19 23 23 28 30 29 29 32 33 33 35 36 38 39 41 42 43
19 18 7 12 19 20 13 23 26 35 26 23 27 27 29 26 18 14 14 24 19 12 16 20 20 22 23 23 24 25 26 29 30 32 32 31 32 33 33 35 36 38 40
19 13 8 15 14 11 12 17 23 30 26 23 31 20 25 27 26 22 16 16 7 11 31 28 22 22 22 22 23 24 26 29 29 28 30 31 28 28 28 29 32 33 35
20 10 11 15 16 9 15 12 24 20 22 28 24 21 16 14 21 25 19 9 5 45 41 22 21 21 21 22 23 25 27 28 26 27 27 27 26 24 24 25 28 28 30
22 15 14 18 19 19 16 19 18 19 17 25 21 12 19 22 29 23 13 3 45 54 37 18 19 20 18 23 23 23 26 27 28 24 24 25 23 21 21 21 25 27 30
31 22 18 17 19 24 19 19 25 34 19 14 14 21 18 21 15 16 6 55 56 6 10 18 14 20 23 17 19 20 20 24 25 26 21 24 24 24 23 23 26 27 29
42 43 31 29 29 24 30 32 31 29 25 28 21 16 15 29 43 44 55 58 9 9 12 17 26 34 32 21 12 14 15 16 18 21 24 25 21 23 21 21 22 25 29
48 50 49 44 33 19 21 24 25 29 40 55 59 67 66 64 63 63 60 59 11 15 23 30 35 29 36 12 13 14 12 14 15 20 20 25 24 22 18 19 22 26 27
53 60 63 64 67 65 60 58 69 71 74 74 67 64 60 55 46 28 11 29 14 8 14 22 27 29 25 25 26 30 20 19 19 23 25 24 24 20 19 20 25 26 28
53 59 61 64 68 72 72 74 70 69 67 68 63 59 51 46 40 36 31 17 6 18 6 10 19 23 25 26 31 38 43 40 31 25 29 32 28 23 25 28 26 28 27
53 56 59 63 68 72 70 64 60 58 59 60 60 58 50 45 35 32 38 32 16 14 8 13 15 18 28 31 27 36 44 43 42 33 30 32 33 33 31 30 33 32 30
54 55 57 61 64 64 60 57 55 53 52 50 49 48 45 42 36 29 22 28 20 17 14 10 12 16 26 31 46 46 50 45 41 40 41 39 33 35 36 39 42 39 37
47 52 54 57 56 57 55 53 49 46 45 40 41 40 38 34 30 28 21 14 10 8 8 14 19 24 28 35 37 38 41 41 45 45 49 48 43 42 43 42 43 44 43
41 44 47 51 51 53 51 50 46 41 35 34 37 36 31 28 25 23 21 13 12 13 16 19 22 23 26 29 32 19 37 37 43 40 50 52 52 56 50 47 50 46 42
Wind_Direction
299 7 247 233 214 165 141 131 120 106 91 79 73 71 76 77 77 77 76 74 72 69 67 64 62 61 60 57 56 56 56 55 52 46 42 40 39 38 37 35 35 34 33
20 334 126 235 216 195 156 138 128 118 103 89 79 80 81 79 81 80 80 78 73 70 67 64 63 61 60 58 56 55 57 56 47 45 42 41 38 39 38 38 38 36 33
48 323 305 207 217 195 167 142 131 121 109 97 90 90 86 86 84 83 81 79 75 72 68 65 64 62 58 53 48 43 38 49 32 43 41 41 38 37 36 36 35 35 36
280 288 270 270 216 194 182 161 143 128 111 99 96 95 90 91 88 86 83 80 77 73 69 66 63 58 52 44 42 36 35 52 47 39 36 35 37 35 34 35 36 34 34
280 281 288 164 148 173 169 154 146 135 121 107 103 99 94 94 92 89 85 82 78 74 69 66 61 55 48 40 32 21 49 51 44 38 39 38 39 40 40 38 36 36 35
284 287 197 164 149 188 182 170 169 138 127 117 113 108 101 99 96 92 87 83 78 72 67 62 57 51 46 35 25 31 55 46 40 39 41 44 43 44 42 41 40 38 36
275 288 260 182 173 169 179 171 159 154 142 128 123 115 107 103 100 95 90 84 78 72 65 57 49 44 40 33 29 38 51 50 49 48 47 43 43 41 40 39 39 39 41
292 322 317 265 199 176 183 180 160 156 144 141 128 122 114 108 102 96 90 85 78 69 61 51 43 38 38 32 24 26 48 50 52 50 46 44 41 41 41 41 43 44 42
345 321 335 333 47 28 194 160 159 160 154 142 134 128 119 112 104 98 93 85 77 69 61 54 47 41 43 29 13 10 33 57 54 52 45 43 42 42 44 45 44 44 42
326 326 315 294 288 265 8 85 176 140 147 151 124 126 120 112 103 97 93 85 77 68 58 52 47 47 45 23 5 1 40 53 54 50 42 37 39 42 44 45 45 44 42
350 357 25 48 58 44 36 84 103 147 150 143 126 125 122 112 103 97 93 89 76 64 56 52 51 44 32 4 358 8 45 47 42 43 39 40 41 42 44 44 43 42 41
349 15 43 83 88 100 98 99 106 117 112 162 143 139 120 130 114 106 90 88 77 67 52 44 33 7 330 334 354 352 33 40 38 40 40 46 43 42 43 45 45 45 42
342 8 58 74 84 107 114 108 104 106 110 123 142 122 115 138 118 105 90 84 80 64 39 10 340 325 341 357 356 6 28 30 34 36 45 47 47 48 48 46 47 46 44
357 345 51 83 105 107 122 114 114 124 120 120 127 118 119 119 114 106 96 92 76 34 23 278 295 335 346 0 0 4 10 29 37 41 41 45 50 50 50 50 47 44 41
5 355 74 110 109 129 137 128 125 122 119 123 120 130 115 117 116 112 103 90 44 24 243 252 320 339 356 358 353 349 348 17 35 33 35 42 51 49 51 48 41 37 32
8 23 71 107 110 152 153 134 138 132 122 122 121 119 123 122 125 120 109 84 22 225 229 298 337 358 6 355 340 342 356 3 36 33 39 46 49 53 45 38 30 27 23
39 59 110 101 118 122 128 133 134 142 142 125 132 129 126 129 128 122 100 321 230 207 247 329 348 4 18 335 354 5 5 5 11 50 50 42 47 50 37 29 20 14 14
73 80 99 103 125 122 125 138 128 132 138 137 136 141 143 133 117 119 291 220 211 26 5 328 2 341 327 0 0 12 15 12 15 15 34 29 26 23 21 15 11 10 6
93 95 97 115 120 121 124 124 137 141 142 144 144 153 140 149 157 226 224 215 181 324 326 321 306 296 304 331 11 25 25 20 17 15 14 14 21 18 13 11 6 0 355
108 104 104 108 114 123 121 120 125 131 145 207 207 193 181 184 193 201 219 218 300 303 302 295 293 308 307 340 346 344 348 355 2 356 358 2 7 6 5 3 354 349 348
116 125 128 127 134 130 128 131 144 154 167 178 182 183 179 175 169 157 163 279 296 290 300 304 304 309 317 327 325 327 322 324 329 330 337 346 347 349 353 345 342 341 340
124 132 134 137 140 146 148 152 159 163 176 179 184 186 171 167 169 172 171 174 267 293 267 289 305 312 314 313 316 317 313 314 314 318 323 327 329 336 332 336 337 335 337
133 134 133 135 138 144 147 149 156 164 174 175 183 185 179 177 174 173 179 179 175 186 246 287 290 303 304 309 300 310 315 311 315 320 318 321 321 319 327 331 330 328 327
140 139 139 141 145 152 155 157 162 162 165 170 173 179 182 180 178 177 183 191 188 186 200 268 299 294 310 306 304 306 311 316 317 324 330 322 320 321 320 320 321 323 319
142 146 150 152 154 160 163 164 165 164 167 167 173 178 181 181 185 189 189 188 201 222 280 307 316 305 312 311 310 305 304 304 311 321 324 325 328 321 317 316 318 317 318
151 153 156 160 163 168 169 174 177 173 170 172 177 179 179 180 187 192 195 219 241 277 292 304 313 313 310 314 316 302 303 305 302 319 322 323 318 321 326 326 322 314 312